Weather History for KDCA - November, 2014

Change the Weather History Date:

Sunday, November 23, 2014

  Actual Average Record
Temperature  
Mean Temperature 48 °F 47 °F  
Max Temperature 57 °F 55 °F 75 °F (1979)
Min Temperature 38 °F 39 °F 12 °F (1880)
Degree Days  
Heating Degree Days 17 18  
Month to date heating degree days 396 330  
Since 1 July heating degree days 498 559  
Cooling Degree Days 0 0  
Month to date cooling degree days 0 0  
Year to date cooling degree days 1712 1547  
Moisture  
Dew Point 34 °F    
Average Humidity 58    
Maximum Humidity 83    
Minimum Humidity 33    
Precipitation  
Precipitation 0.13 in 0.10 in 1.52 in (1884)
Month to date precipitation 1.40 2.42  
Year to date precipitation 39.67 35.94  
Snow  
Snow 0.00 in 0.00 in 1.90 in (1989)
Month to date snowfall T 0.3  
Since 1 July snowfall T 0.3  
Snow Depth 0.00 in    
Sea Level Pressure  
Sea Level Pressure 30.09 in    
Wind  
Wind Speed 6 mph (SSE)    
Max Wind Speed 13 mph    
Max Gust Speed 16 mph    
Visibility 9 miles    
Events Rain    
T = Trace of Precipitation, MM = Missing Value Source: NWS Daily Summary

Daily Weather History Graph

Daily Weather History Graph

Search for Another Location

Airport or City:

Trip Planner

Search our weather history database for the weather conditions in past years. The results will help you decide how hot, cold, wet, or windy it might be!

Date:

Astronomy

Nov. 23, 2014 Rise Set
Actual Time 6:59 AM EST 4:49 PM EST
Civil Twilight 6:30 AM EST 5:18 PM EST
Nautical Twilight 5:57 AM EST 5:51 PM EST
Astronomical Twilight 5:25 AM EST 6:22 PM EST
Moon 7:53 AM EST (11/23) 6:10 PM EST (11/23)
Length of Visible Light 10h 48m
Length of Day
9h 50m
New Moon, 2% of the Moon is Illuminated
Nov 23
New Moon
Nov 29
First Quarter
Dec 6
Full
Dec 14
Last Quarter
Dec 21
New

Hourly Weather History & Observations

Time (EST) Temp. Windchill Dew Point Humidity Pressure Visibility Wind Dir Wind Speed Gust Speed Precip Events Conditions
12:52 AM 44.1 °F 39.5 °F 19.0 °F 37% 30.25 in 10.0 mi South 8.1 mph - N/A   Scattered Clouds
1:52 AM 45.0 °F 39.3 °F 18.0 °F 34% 30.25 in 10.0 mi SSW 11.5 mph - N/A   Overcast
2:52 AM 44.1 °F 38.6 °F 18.0 °F 35% 30.23 in 10.0 mi South 10.4 mph - N/A   Scattered Clouds
3:52 AM 43.0 °F 38.2 °F 19.0 °F 38% 30.22 in 10.0 mi SSW 8.1 mph - N/A   Scattered Clouds
4:52 AM 41.0 °F 38.0 °F 19.0 °F 41% 30.23 in 10.0 mi WSW 4.6 mph - N/A   Scattered Clouds
5:52 AM 39.9 °F 35.8 °F 19.9 °F 45% 30.23 in 10.0 mi SSW 5.8 mph - N/A   Mostly Cloudy
6:52 AM 41.0 °F 38.0 °F 21.0 °F 45% 30.25 in 10.0 mi South 4.6 mph - N/A   Mostly Cloudy
7:52 AM 41.0 °F 38.0 °F 21.9 °F 47% 30.25 in 10.0 mi SSW 4.6 mph - N/A   Scattered Clouds
8:52 AM 44.1 °F 42.5 °F 26.1 °F 49% 30.25 in 10.0 mi SSW 3.5 mph - N/A   Mostly Cloudy
9:52 AM 45.0 °F 41.8 °F 24.1 °F 44% 30.23 in 10.0 mi South 5.8 mph - N/A   Clear
10:52 AM 48.0 °F - 25.0 °F 41% 30.22 in 10.0 mi South 4.6 mph - N/A   Mostly Cloudy
11:52 AM 51.1 °F - 24.1 °F 35% 30.20 in 10.0 mi SSW 6.9 mph - N/A   Mostly Cloudy
12:52 PM 53.6 °F - 26.6 °F 35% 30.16 in 10.0 mi South 4.6 mph - N/A   Mostly Cloudy
1:52 PM 55.0 °F - 28.0 °F 35% 30.14 in 10.0 mi SSE 6.9 mph - N/A   Mostly Cloudy
2:52 PM 55.0 °F - 30.9 °F 40% 30.12 in 10.0 mi South 3.5 mph - N/A   Overcast
3:52 PM 57.0 °F - 28.9 °F 34% 30.10 in 10.0 mi Calm Calm - N/A   Overcast
4:52 PM 55.9 °F - 30.9 °F 39% 30.08 in 10.0 mi South 3.5 mph - N/A   Overcast
5:52 PM 55.0 °F - 39.0 °F 55% 30.07 in 10.0 mi Calm Calm - N/A   Overcast
6:52 PM 55.0 °F - 44.1 °F 67% 30.05 in 10.0 mi SSE 5.8 mph - N/A   Overcast
7:52 PM 55.9 °F - 44.1 °F 64% 30.02 in 10.0 mi SSE 6.9 mph - N/A   Overcast
8:09 PM 55.4 °F - 46.4 °F 72% 30.01 in 10.0 mi SSE 6.9 mph - 0.00 in Rain Light Rain
8:12 PM 55.4 °F - 46.4 °F 72% 30.00 in 10.0 mi SSE 8.1 mph - 0.00 in Rain Light Rain
8:36 PM 55.4 °F - 46.4 °F 72% 29.99 in 10.0 mi SE 8.1 mph - 0.00 in Rain Light Rain
8:42 PM 55.4 °F - 46.4 °F 72% 29.99 in 10.0 mi SE 8.1 mph - 0.00 in   Overcast
8:52 PM 54.0 °F - 46.9 °F 77% 29.99 in 10.0 mi SSE 4.6 mph - 0.00 in   Overcast
8:58 PM 53.6 °F - 46.4 °F 77% 29.98 in 9.0 mi SSE 3.5 mph - N/A   Overcast
9:03 PM 53.6 °F - 46.4 °F 77% 29.98 in 8.0 mi SSE 4.6 mph - 0.00 in Rain Light Rain
9:34 PM 53.6 °F - 48.2 °F 82% 29.96 in 10.0 mi Variable 4.6 mph - 0.01 in   Overcast
9:52 PM 54.0 °F - 48.0 °F 80% 29.94 in 10.0 mi SE 8.1 mph - 0.01 in   Overcast
9:54 PM 53.6 °F - 48.2 °F 82% 29.94 in 10.0 mi SE 4.6 mph - N/A   Overcast
10:17 PM 53.6 °F - 48.2 °F 82% 29.92 in 10.0 mi SE 3.5 mph - 0.00 in Rain Light Rain
10:52 PM 53.1 °F - 48.0 °F 83% 29.87 in 5.0 mi NE 3.5 mph - 0.02 in Rain Light Rain
11:09 PM 53.6 °F - 48.2 °F 82% 29.84 in 5.0 mi Calm Calm - 0.01 in Rain Light Rain
11:45 PM 55.4 °F - 51.8 °F 88% 29.81 in 4.0 mi SE 5.8 mph - 0.08 in Rain Rain
11:52 PM 55.9 °F - 52.0 °F 87% 29.81 in 5.0 mi SE 6.9 mph - 0.09 in Rain Light Rain